Location: Ffald-y-Brenin
(52.0833°N, 4.0000°W)
Time: 19:23:14
(UTC+00:00)

ARIANE 5 R/B - Pass Details

Date: 18 February 2020
Orbit: 748 x 795 km, 98.6° (Epoch: 29 March)

Event Time Altitude Azimuth Distance (km) Brightness Sun altitude
Rises 03:59:09 0° 11° (N) 3,214 6.2 -32.0°
Reaches altitude 10° 04:01:32 10° 4° (N) 2,283 5.2 -31.6°
Enters shadow 04:03:04 19° 356° (N) 1,733 4.5 -31.4°
